Weather observations for the past three days for
Jackson, Jackson International Airport
Metric (Imperial)
Date Time (cdt) Wind (kph) Vis. (km) Weather Sky Cond. Temperature (ºC) Relative Humidity Wind Chill (°C) Heat Index (°C) Pressure Precipitation (cm)
Air Dwpt 6 hour altimeter (cm) sea level (mb) 1 hr 3 hr 6 hr
Max. Min.
21 12:54 E 9 16.09 Partly Cloudy FEW042 SCT065 32.8 20 33.3 23.3 47% 35 76.63 1021.1
21 11:54 SE 7 16.09 Partly Cloudy SCT070 SCT085 31.7 21.1 53% 35 76.68 1021.7
21 10:54 NE 9 16.09 Mostly Cloudy SCT070 BKN085 30 22.2 63% 33 76.71 1022.2
21 09:54 E 11 16.09 Partly Cloudy SCT095 28.9 22.8 70% 32 76.71 1022.3
21 08:54 E 7 16.09 Mostly Cloudy BKN050 BKN085 26.7 21.7 74% 29 76.73 1022.5
21 07:54 E 6 16.09 Mostly Cloudy BKN050 25 21.7 82% 26 76.71 1022.3
21 06:54 Calm 16.09 Mostly Cloudy SCT070 BKN085 23.3 21.1 23.3 21.7 88% 76.68 1021.8
21 05:54 Calm 16.09 Fair CLR 22.8 20.6 87% 76.66 1021.5
21 04:54 Calm 16.09 Fair CLR 22.8 20.6 87% 76.63 1021.2
21 03:54 Calm 16.09 Fair CLR 22.8 21.1 90% 76.61 1020.9
21 02:54 Calm 16.09 Partly Cloudy SCT065 22.8 20.6 87% 76.61 1020.9
21 01:54 Calm 16.09 Fair CLR 21.7 20.6 94% 76.63 1021.3
21 00:54 Calm 16.09 Fair CLR 23.3 20.6 29.4 23.3 85% 76.66 1021.3
20 23:54 E 7 16.09 Fair CLR 23.9 20.6 82% 24 76.66 1021.4
20 22:54 E 7 16.09 A Few Clouds FEW300 24.4 20 77% 25 76.66 1021.5
20 21:54 NE 6 16.09 Fair CLR 25 20 74% 26 76.66 1021.4
20 20:54 E 7 16.09 A Few Clouds FEW070 FEW300 26.7 20 67% 28 76.63 1021.0
20 19:54 E 13 16.09 Partly Cloudy FEW065 SCT300 28.3 19.4 59% 30 76.61 1020.7
20 18:54 E 15 16.09 Partly Cloudy FEW055 SCT300 29.4 18.9 32.8 29.4 53% 31 76.58 1020.6
20 17:54 E 13 16.09 Mostly Cloudy FEW055 BKN300 31.7 18.3 45% 33 76.58 1020.5
20 16:54 E 13 G 30 16.09 Partly Cloudy FEW060 SCT300 31.7 18.3 45% 33 76.61 1020.8
20 15:54 NE 11 16.09 Partly Cloudy FEW065 SCT300 32.2 17.2 41% 33 76.63 1021.1
20 14:54 E 17 16.09 Partly Cloudy FEW060 SCT300 32.8 17.8 41% 34 76.66 1021.6
20 13:54 E 17 G 33 16.09 Partly Cloudy FEW055 SCT300 32.2 18.9 45% 34 76.68 1021.8
20 12:54 E 11 16.09 Fair CLR 31.7 19.4 31.7 23.3 48% 33 76.73 1022.4
20 11:54 E 19 16.09 Fair CLR 30.6 18.9 50% 32 76.76 1022.7
20 10:54 E 15 16.09 Fair CLR 30 20 55% 32 76.76 1022.9
20 09:54 E 13 16.09 A Few Clouds FEW075 28.9 20 59% 31 76.76 1022.8
20 08:54 E 17 16.09 A Few Clouds FEW200 27.8 20 63% 29 76.73 1022.5
20 07:54 E 15 16.09 A Few Clouds FEW200 25.6 20 71% 27 76.68 1021.8
20 06:54 E 11 16.09 Fair CLR 23.3 20 24.4 22.8 82% 76.63 1021.0
20 05:54 E 13 16.09 Fair CLR 22.8 19.4 81% 76.58 1020.5
20 04:54 NE 11 16.09 Fair CLR 22.8 20 84% 76.53 1019.8
20 03:54 NE 9 16.09 Fair CLR 22.8 21.1 90% 76.53 1019.7
20 02:54 NE 11 16.09 Fair CLR 23.3 21.1 88% 76.53 1019.8
20 01:54 NE 9 16.09 Fair CLR 23.9 21.7 88% 24 76.53 1019.8
20 00:54 NE 7 16.09 Fair CLR 24.4 21.7 28.9 24.4 85% 25 76.56 1020.0
19 23:54 Calm 16.09 Fair CLR 25 22.2 85% 26 76.56 1020.3
19 22:54 E 9 16.09 A Few Clouds FEW085 26.1 22.2 79% 28 76.56 1020.3
19 21:54 NE 11 16.09 Partly Cloudy FEW080 SCT300 26.7 22.2 76% 29 76.53 1019.9
19 20:54 NE 11 16.09 Mostly Cloudy BKN080 27.2 22.8 77% 30 76.48 1019.2
19 19:54 E 13 16.09 Mostly Cloudy FEW030 BKN075 BKN085 27.8 22.8 74% 31 76.48 1019.1
19 18:54 Vrbl 11 16.09 Mostly Cloudy FEW027 SCT055 BKN300 28.9 22.8 31.7 28.9 70% 32 76.43 1018.5
19 17:54 E 17 G 33 16.09 Mostly Cloudy BKN035 BKN080 BKN300 29.4 22.8 68% 33 76.4 1018.1
19 16:54 E 24 G 44 16.09 Mostly Cloudy FEW031TCU SCT085 BKN300 30 22.2 63% 33 76.4 1018.1
19 15:54 E 22 G 41 16.09 Mostly Cloudy SCT033 BKN085 BKN300 31.1 23.3 63% 36 76.4 1018.1
19 14:54 E 11 G 31 16.09 Mostly Cloudy FEW036 SCT200 BKN300 30.6 22.8 63% 35 76.4 1018.2
19 13:54 E 20 G 33 16.09 Mostly Cloudy FEW033 SCT045 BKN300 31.1 22.2 59% 35 76.43 1018.5
19 12:54 NE 22 G 33 16.09 Mostly Cloudy BKN036 31.1 22.8 31.1 24.4 61% 35 76.48 1019.0
19 11:54 E 11 16.09 Mostly Cloudy BKN250 28.9 22.2 67% 32 76.48 1019.1
19 10:54 Vrbl 11 16.09 Mostly Cloudy BKN250 27.8 21.7 69% 30 76.48 1019.2
19 09:54 E 17 16.09 Mostly Cloudy BKN250 26.1 20.6 72% 28 76.48 1019.0
19 08:54 E 15 16.09 Overcast OVC200 26.1 20.6 72% 28 76.45 1018.8
19 07:54 E 13 16.09 Overcast OVC200 25 20 74% 26 76.43 1018.3
19 06:54 E 11 16.09 Overcast OVC200 24.4 20 25 24.4 77% 25 76.35 1017.5
19 05:54 NE 7 16.09 Fair CLR 24.4 20.6 79% 25 76.3 1016.6
19 04:54 NE 7 16.09 Fair CLR 24.4 21.1 82% 25 76.23 1015.8
19 03:54 NE 11 16.09 Fair CLR 24.4 21.1 82% 25 76.2 1015.2
19 02:54 E 7 16.09 Fair CLR 25 21.1 79% 26 76.17 1015.0
19 01:54 E 9 16.09 Fair CLR 25 21.7 82% 26 76.2 1015.4
19 00:54 E 9 16.09 Fair CLR 25 21.7 26.7 25 82% 26 76.23 1015.7
18 23:54 E 9 16.09 Fair CLR 25.6 21.7 79% 27 76.23 1015.7
18 22:54 E 9 16.09 Fair CLR 25 22.2 85% 26 76.23 1015.7
18 21:54 E 6 16.09 Overcast OVC110 25 22.8 88% 26 76.23 1015.7
18 20:54 E 6 16.09 Fair CLR 25 22.8 88% 26 76.2 1015.5
18 19:54 Calm 16.09 Overcast FEW095 OVC110 26.1 22.8 82% 28 76.23 1015.7
18 18:54 E 7 16.09 Overcast FEW095 OVC110 26.7 22.8 27.8 25.6 79% 29 76.23 1015.5
18 17:54 Calm 16.09 Overcast FEW095 OVC110 26.7 22.8 79% 29 76.17 1015.2
18 16:54 E 7 16.09 A Few Clouds FEW095 FEW110 26.7 22.2 76% 29 76.2 1015.3
18 15:54 E 13 16.09 Light Rain BKN100 BKN120 OVC250 26.7 22.8 79% 29 76.2 1015.4
18 14:54 SE 13 16.09 Overcast OVC250 27.8 23.3 77% 31 76.25 1015.9
18 13:54 E 9 16.09 Overcast FEW018 OVC250 26.7 23.3 82% 29 76.25 1016.1
Date Time (cdt) Wind (kph) Vis. (km) Weather Sky Cond. Air Dwpt Max. Min. Relative Humidity Wind Chill (°C) Heat Index (°C) altimeter (cm) sea level (mb) 1 hr 3 hr 6 hr
6 hour
Temperature (ºC) Pressure Precipitation (cm)